SCP
0 0 0 0 0 0 0 0 0 0 0 0 0 0 0 0 0 0 0 0 0 0 0 0 0 0 0 0 0 0 0 0 0 1 0 0 0 0 0 0 0 0 0 0
0 0 0 0 0 0 0 0 0 0 0 0 0 0 0 0 0 0 0 0 0 0 0 0 0 0 0 0 0 0 0 0 0 0 0 0 0 0 0 0 0 0 0 0
0 0 0 0 0 0 0 0 0 0 0 0 0 0 0 0 0 0 0 0 0 0 0 0 0 0 0 0 0 0 0 0 0 0 0 0 0 0 0 0 0 0 0 0
0 0 0 0 0 0 0 0 0 0 0 0 0 0 0 0 0 0 0 0 0 0 0 0 0 0 0 0 0 0 0 0 0 0 0 0 0 0 0 0 0 0 0 0
0 0 0 0 0 0 0 0 0 0 0 0 0 0 0 0 0 0 0 0 0 0 0 0 0 0 0 0 0 1 1 0 0 0 0 0 0 0 0 0 0 0 0 0
0 0 0 0 0 0 0 0 0 0 0 0 0 0 0 0 0 0 0 0 0 0 0 0 0 0 0 0 0 0 0 0 0 0 0 0 0 0 0 0 0 0 0 0
0 0 0 0 0 0 0 0 0 0 0 0 0 0 0 0 0 0 0 0 0 0 0 0 0 0 0 0 0 0 0 0 0 0 0 0 0 0 0 0 0 0 0 0
0 0 0 0 0 0 0 0 0 0 0 0 0 0 0 0 0 0 0 0 0 0 0 0 0 0 0 0 0 0 0 0 0 0 0 0 0 0 0 0 0 0 0 0
0 0 0 0 0 0 0 0 0 0 0 0 0 0 0 0 0 0 0 0 0 0 0 0 0 0 0 0 0 0 0 0 0 0 0 0 0 0 0 0 0 0 0 0
0 0 0 0 0 0 0 0 0 0 0 0 0 0 0 0 0 0 0 0 0 0 0 0 0 0 0 0 0 0 0 0 0 0 0 0 0 0 0 0 0 0 0 0
0 0 0 0 0 0 0 0 0 0 0 0 0 0 0 0 0 0 0 0 0 0 0 0 0 0 0 0 0 0 0 0 0 0 0 0 0 0 0 0 0 0 0 0
0 0 0 0 0 0 0 0 0 0 0 0 0 0 0 0 0 0 0 0 0 0 0 0 0 0 0 0 0 0 0 0 0 0 0 0 0 0 0 0 0 0 0 0
0 0 0 0 0 0 0 0 0 0 0 0 0 0 0 0 0 0 0 0 0 0 0 0 0 0 0 0 0 0 0 0 0 0 0 0 0 0 0 0 0 0 0 0
0 0 0 0 0 0 0 0 0 0 0 0 0 0 0 0 0 0 0 0 0 0 0 0 0 0 0 0 0 0 0 0 0 0 0 0 0 0 0 0 0 0 0 0
0 0 0 0 0 0 0 0 0 0 0 0 0 0 0 0 0 0 0 0 0 0 0 0 0 0 0 0 0 0 0 0 0 0 0 0 0 0 0 0 0 0 0 0
0 0 0 0 0 0 0 0 0 0 0 0 0 0 0 0 0 0 0 0 0 0 0 0 0 0 0 0 0 0 0 0 0 0 0 0 0 0 0 0 0 0 0 0
0 0 0 0 0 0 0 0 0 0 0 0 0 0 0 0 0 0 0 0 0 0 0 0 0 0 0 0 0 0 0 0 0 0 0 0 0 0 0 0 0 0 0 0
0 0 0 0 0 0 0 0 0 0 0 0 0 0 0 0 0 0 0 0 0 0 0 0 0 0 0 0 0 0 0 0 0 0 0 0 0 0 0 0 0 0 0 0
0 0 0 0 0 0 0 0 0 0 0 0 0 0 0 0 0 0 0 0 0 0 0 0 0 0 0 0 0 0 0 0 0 0 0 0 0 0 0 0 0 0 0 0
0 0 0 0 0 0 0 0 0 0 0 0 0 0 0 0 0 0 0 0 0 0 0 0 0 0 0 0 0 0 0 0 0 0 0 0 0 0 0 0 0 0 0 0
0 0 0 0 0 0 0 0 0 0 0 0 0 0 0 0 0 0 0 0 0 0 0 0 0 0 0 0 0 0 0 0 0 0 0 0 0 0 0 0 0 0 0 0
0 0 0 0 0 0 0 0 0 0 0 0 0 0 0 0 0 0 0 0 0 0 0 0 0 0 0 0 0 0 0 0 0 0 0 0 0 0 0 0 0 0 0 0
0 0 0 0 0 0 0 0 0 0 0 0 0 0 0 0 0 0 0 0 0 0 0 0 0 0 0 0 0 0 0 0 0 0 0 0 0 0 0 0 0 0 0 0
0 0 0 0 0 0 0 0 0 0 0 0 0 0 0 0 0 0 0 0 0 0 0 0 0 0 0 0 0 0 0 0 0 0 0 0 0 0 0 0 0 0 0 0
0 0 0 0 0 0 0 0 0 0 0 0 0 0 0 0 0 0 0 0 0 0 0 0 0 0 0 0 0 0 0 0 0 0 0 0 0 0 0 0 0 0 0 0
0 0 0 0 0 0 0 0 0 0 0 0 0 0 0 0 0 0 0 0 0 0 0 0 0 0 0 0 0 0 0 0 0 0 0 0 0 0 0 0 0 0 0 0
0 0 0 0 0 0 0 0 0 0 0 0 0 0 0 0 0 0 0 0 0 0 0 0 0 0 0 0 0 0 0 0 0 0 0 0 0 0 0 0 0 0 0 0
Wind_Speed
8 8 7 8 9 8 9 8 7 7 7 8 6 6 5 5 5 5 5 4 4 3 2 1 1 1 2 2 2 2 2 2 2 3 3 2 2 2 2 2 2 2 2 2
6 5 6 9 11 11 11 10 11 11 11 7 5 5 5 6 6 7 7 6 5 4 3 3 2 1 1 1 1 1 2 2 2 2 2 2 2 2 2 2 2 2 2 2
4 4 7 8 7 10 7 7 7 9 7 3 5 6 7 6 7 7 7 6 6 5 5 4 3 2 2 1 1 1 1 2 2 2 2 2 2 2 2 3 3 3 3 2
5 5 6 0 1 4 7 7 8 8 6 6 7 6 6 6 7 7 7 6 6 5 5 4 3 2 2 1 1 1 1 1 2 2 2 2 2 2 3 3 3 3 3 3
3 5 8 3 3 4 5 6 7 9 8 5 3 3 6 6 7 7 6 6 6 5 4 4 3 2 2 2 1 1 1 2 2 2 2 2 2 3 3 2 3 3 3 3
4 5 6 1 2 2 3 5 3 6 6 4 3 4 3 3 5 5 5 5 5 4 4 4 3 3 3 2 2 2 2 2 2 2 1 1 2 2 2 2 2 3 3 3
7 7 8 2 3 4 4 2 0 4 6 7 7 5 2 3 5 5 5 5 5 5 5 4 4 4 4 3 3 2 2 2 2 2 1 2 2 2 2 2 2 3 3 3
6 7 8 5 7 7 3 1 2 4 6 8 7 5 3 4 5 5 5 5 5 5 4 4 4 5 5 4 3 2 2 2 1 1 1 1 1 2 2 2 2 3 3 3
9 8 2 7 8 5 3 4 4 5 5 6 6 6 5 5 5 5 5 5 5 5 4 4 5 5 5 4 3 3 2 2 1 1 1 1 1 1 1 1 2 2 2 3
9 11 9 9 10 9 8 8 7 6 5 6 7 7 6 5 5 5 5 5 5 5 5 5 5 5 5 4 3 3 3 2 1 1 1 1 1 1 1 1 2 2 2 3
11 11 9 9 11 10 8 7 7 7 7 7 8 7 7 6 6 5 5 5 5 6 6 5 5 5 4 4 4 4 3 2 2 1 1 1 1 2 2 2 2 3 2 3
12 9 8 7 5 6 7 8 8 7 7 7 8 8 7 6 6 5 5 5 5 6 6 5 5 5 4 4 4 4 3 3 2 2 1 2 2 2 2 3 3 4 4 4
15 10 10 10 8 7 8 8 7 8 8 7 7 7 7 6 5 6 6 6 7 7 6 6 5 5 5 4 5 5 4 3 2 2 2 2 2 2 2 2 3 4 4 4
15 12 12 12 11 10 9 8 7 7 7 7 6 6 6 6 6 7 7 7 6 6 6 6 6 6 5 5 5 5 4 3 3 2 2 2 2 2 2 3 3 2 3 4
16 15 14 11 9 8 7 6 7 7 7 7 6 7 7 7 7 7 6 6 6 6 6 6 6 6 5 5 5 5 4 3 3 2 2 2 2 2 2 3 3 3 3 3
11 12 13 13 13 12 10 9 10 10 8 8 7 8 8 8 7 6 6 7 7 8 8 7 7 6 5 5 5 5 4 4 3 3 3 3 3 3 2 3 3 3 3 3
12 13 12 13 14 13 12 12 11 11 9 9 9 8 7 7 6 7 7 7 7 7 7 8 7 6 6 6 6 4 3 4 5 3 3 3 3 3 3 3 3 3 3 3
15 15 14 13 12 12 12 11 11 10 10 9 8 7 8 9 9 9 8 7 6 6 7 7 6 6 6 6 5 4 4 4 4 4 3 3 3 3 3 3 3 3 3 3
12 13 13 13 12 11 11 10 10 10 9 8 8 9 9 10 9 8 7 7 8 8 7 7 8 8 7 7 6 4 4 4 4 4 4 4 4 3 3 3 3 3 3 3
10 10 10 10 10 10 11 10 9 8 8 8 8 8 9 9 8 7 8 8 8 6 5 7 8 7 7 7 7 5 5 5 5 4 4 4 4 4 3 3 3 3 3 3
9 9 9 9 9 9 9 9 8 9 8 8 9 10 9 8 7 7 7 7 6 6 6 8 7 6 6 6 8 5 5 5 5 5 4 4 4 4 4 3 3 3 3 3
7 7 8 7 7 8 7 7 8 8 8 8 9 8 8 8 8 8 8 6 5 7 6 5 5 7 7 8 6 6 6 5 5 4 4 4 4 4 4 4 4 3 4 4
6 6 6 7 7 6 5 6 7 7 8 8 9 9 9 8 7 7 6 5 5 8 6 5 7 10 10 7 5 6 6 6 5 5 4 4 4 4 4 4 4 4 4 4
6 6 5 4 4 5 6 6 6 5 6 6 7 7 7 6 5 5 4 6 8 8 5 6 10 11 10 5 5 5 5 5 5 5 4 4 4 4 4 4 4 4 4 4
5 5 4 5 6 6 6 4 4 5 5 5 5 6 6 5 5 5 4 6 8 7 5 7 10 10 7 5 5 5 5 5 4 4 4 4 4 4 4 4 4 4 4 4
5 5 5 6 5 4 4 4 4 4 4 4 4 4 4 4 4 4 4 5 7 7 5 4 5 6 5 5 5 5 4 4 5 4 4 4 4 4 4 4 5 4 4 4
5 4 4 4 4 4 4 4 5 5 5 5 4 3 4 4 4 5 5 5 5 4 4 4 4 4 4 4 4 4 4 4 4 4 4 4 4 4 4 5 4 4 4 4
Wind_Direction
271 273 263 261 257 236 228 241 252 265 257 259 263 258 243 224 212 214 216 216 214 221 226 243 300 345 3 5 8 11 13 11 3 359 360 2 1 357 351 344 331 318 313 310
275 253 261 263 253 241 239 243 250 264 268 267 258 245 231 214 207 215 217 219 220 222 226 231 245 276 303 325 353 360 357 356 353 352 358 360 354 349 348 350 346 343 332 318
277 301 285 261 241 221 224 224 229 242 257 252 242 239 232 217 212 218 220 219 219 220 221 221 224 238 253 273 312 343 349 348 346 341 345 348 346 342 345 352 351 351 339 329
290 300 254 319 87 219 231 242 232 254 266 249 255 263 248 227 223 225 221 219 219 219 216 214 218 226 233 238 247 301 335 332 332 332 338 343 346 345 348 351 350 351 349 343
262 279 278 266 201 204 226 258 232 243 256 261 279 268 234 221 229 230 223 218 215 213 212 207 208 210 209 214 231 283 304 308 315 317 321 332 342 343 346 349 349 346 341 341
236 259 261 311 136 179 225 259 217 224 235 217 191 236 230 189 217 222 217 211 208 200 199 202 200 197 202 216 228 252 273 283 294 294 297 313 329 335 341 343 341 339 338 333
230 248 267 253 150 169 224 314 196 219 221 206 214 248 286 202 216 213 205 200 197 196 198 202 192 190 205 218 234 253 262 271 284 292 301 315 329 338 342 344 340 341 340 338
205 225 249 156 161 206 257 355 238 232 225 223 240 262 249 220 213 202 195 193 194 197 201 199 192 195 210 221 231 233 230 241 269 296 318 322 330 338 336 336 336 338 339 338
214 231 284 183 213 239 256 250 246 239 239 234 243 248 241 228 216 207 202 197 197 200 201 199 198 202 216 224 224 221 220 227 250 287 307 306 300 312 314 322 326 328 328 329
251 257 254 246 247 250 244 251 258 251 246 234 239 241 236 228 219 213 207 201 197 200 207 208 203 207 218 217 212 214 219 226 237 255 280 293 292 286 287 299 309 317 320 319
248 261 270 249 234 242 245 248 255 254 246 241 241 241 232 227 222 217 211 204 199 204 211 213 208 211 212 208 204 212 218 224 230 241 260 267 273 281 278 274 299 302 300 303
240 237 232 251 239 230 237 245 247 251 250 239 232 236 230 228 222 216 211 205 205 207 211 211 210 214 210 207 207 210 213 218 223 231 242 256 263 274 286 287 309 307 310 312
249 259 254 264 263 248 249 255 251 243 244 244 233 228 225 224 215 211 210 207 208 208 209 209 211 215 211 206 208 213 217 217 221 226 235 248 260 271 287 288 280 291 303 314
243 249 256 253 254 255 254 256 255 246 244 242 234 224 220 219 211 209 212 211 209 205 206 207 213 218 209 204 209 216 218 216 220 225 234 245 254 266 274 285 291 293 291 302
239 237 245 255 256 253 248 245 243 244 242 237 226 219 213 211 214 216 212 203 199 202 206 207 216 219 203 201 207 213 216 217 217 223 229 240 248 255 262 270 280 292 303 309
239 240 242 245 248 249 246 241 242 246 242 234 225 223 220 218 219 215 204 193 197 208 209 210 218 214 200 200 205 210 214 213 218 220 223 229 236 243 254 263 274 285 294 308
236 238 235 238 242 244 243 240 239 242 239 232 228 222 216 214 215 213 209 204 210 216 213 214 216 204 197 201 205 209 208 205 206 218 223 227 233 238 245 255 264 274 284 302
237 241 239 240 241 243 244 241 238 236 234 233 226 214 209 210 215 217 210 201 207 218 219 216 210 199 199 202 204 205 206 209 210 217 221 224 231 236 241 249 257 266 277 285
234 238 241 240 238 238 239 238 236 235 232 223 215 216 217 219 220 214 198 196 206 220 220 206 196 197 202 202 197 202 205 208 212 218 220 225 229 231 235 244 253 261 269 275
233 235 238 239 237 235 237 237 233 231 226 217 216 218 222 222 215 204 200 209 216 218 202 193 196 202 202 199 193 201 204 209 213 215 217 221 227 231 234 241 250 257 261 264
230 231 231 233 235 236 235 234 229 229 225 215 214 217 220 218 207 200 203 221 222 201 192 190 196 199 197 192 191 201 204 208 212 214 216 220 224 229 233 239 246 252 259 263
226 227 231 233 236 240 237 230 227 227 223 218 218 217 214 212 208 208 214 222 205 186 190 196 198 196 194 191 197 200 204 208 211 212 215 219 223 228 232 238 245 250 256 260
227 228 231 233 235 241 240 232 226 222 219 216 214 212 212 212 205 204 217 208 190 188 193 200 198 194 195 196 198 201 205 209 211 213 214 216 221 227 234 238 243 247 252 256
225 227 229 229 224 228 236 234 224 223 221 221 219 214 208 206 211 214 212 185 187 189 199 198 196 198 196 199 198 202 206 208 210 212 214 217 220 224 230 237 243 248 250 254
220 221 214 209 220 230 232 225 218 218 216 218 216 211 208 205 205 199 191 188 186 188 197 197 197 199 199 198 198 201 205 207 207 209 214 217 221 225 230 234 238 243 247 249
214 219 221 222 227 227 215 208 214 214 209 212 210 201 195 190 186 184 181 182 186 187 189 189 191 192 195 194 198 201 204 207 210 214 217 221 226 229 233 237 239 242 246 249
215 217 218 225 226 217 212 211 214 215 209 205 204 193 184 181 180 179 176 175 176 179 180 181 182 186 189 192 196 200 203 205 208 213 216 221 226 231 236 238 242 243 243 245